{"data":{"norad_id":44804,"intl_designator":"2019-081A","name":"CARTOSAT-3","alt_names":[],"object_type":"PAYLOAD","status":"ACTIVE","operator":null,"country":"IND","launch_date":"2019-11-27","launch_site_code":"SRILR","launch_vehicle":null,"mission":null,"orbit_class":"UNKNOWN","rcs_meters":null,"size_class":null,"mass_kg":null,"dimensions":null,"purposes":["earth_obs"],"wikipedia_slug":null,"has_3d_model":false,"image_url":null,"decayed_at":null,"tle_current":{"epoch":"2026-09-20T04:45:55.389600Z","epoch_age_seconds":37186,"freshness":"FRESH","line1":"1 44804U 19081A   26263.19855775  .00000964  00000+0  48918-4 0  9997","line2":"2 44804  97.4206 323.4820 0011581 175.6103 184.5236 15.19233950377892","mean_motion":15.1923395,"eccentricity":0.0011581,"inclination_deg":97.4206,"raan_deg":323.482,"arg_perigee_deg":175.6103,"mean_anomaly_deg":184.5236,"bstar":4.8918e-5,"rev_number":37789,"period_min":94.7846116788,"perigee_km":500.17949726834,"apogee_km":516.12952566721,"semimajor_km":6886.2915114678,"source":"CELESTRAK","updated_at":"2026-09-20T09:00:33.975350Z"}}}